DW4887 Weather Reports


Display with metric or nautical units.
time (UTC)temp
F
wind
direction
speed
MPH
gust
MPH
rain 1hr
in
rain 24hr
in
rain mn
in
humidity
%
barometer
mb
20210308083049 42 99 0.0 0.0 0.00 0.06 0.00 71 1028.2
20210308081854 42 99 0.0 0.0 0.00 0.06 0.00 70 1028.1
20210308081214 42 99 0.0 0.0 0.00 0.06 0.00 70 1028.1
20210308074204 43 99 0.0 0.0 0.00 0.06 0.00 69 1028.2
20210308073738 43 99 0.0 0.0 0.00 0.06 0.00 69 1028.2
20210308072752 43 99 0.0 0.0 0.00 0.06 0.00 68 1028.2
20210308072337 43 99 0.0 0.0 0.00 0.06 0.00 68 1028.2
20210308071739 43 99 0.0 0.0 0.00 0.06 0.00 68 1028.2
20210308070738 43 99 0.0 0.0 0.00 0.06 0.00 68 1028.2
20210308061704 44 99 0.0 0.0 0.00 0.06 0.00 67 1028.2
20210308060243 44 99 0.0 0.0 0.00 0.06 0.00 66 1028.3
20210308055534 45 99 0.0 0.0 0.00 0.06 0.06 64 1028.3
20210308053736 45 99 0.0 0.0 0.00 0.06 0.06 64 1028.3
20210308052912 45 99 0.0 0.0 0.00 0.06 0.06 62 1028.3
20210308051737 46 99 0.0 0.0 0.00 0.06 0.06 61 1028.3
20210308051247 46 99 0.0 0.0 0.00 0.06 0.06 62 1028.3
20210308050240 46 99 0.0 0.0 0.00 0.06 0.06 60 1028.3
20210308050029 46 99 0.0 0.0 0.00 0.06 0.06 59 1028.3
20210308043021 48 99 0.0 0.0 0.00 0.06 0.06 55 1028.3
20210308041923 49 99 0.0 0.0 0.00 0.06 0.06 54 1028.2
20210308041228 49 99 0.0 0.0 0.00 0.06 0.06 53 1028.1
20210308040746 49 99 0.0 0.0 0.00 0.06 0.06 52 1028.0
20210308040227 50 99 0.0 0.0 0.00 0.06 0.06 51 1028.0
20210308035938 50 99 0.0 0.0 0.00 0.06 0.06 50 1028.0
20210308035547 51 99 0.0 0.0 0.00 0.06 0.06 49 1027.9
20210308033742 52 99 0.0 0.0 0.00 0.07 0.06 46 1027.7
20210308033239 52 99 0.0 0.0 0.00 0.07 0.06 46 1027.7
20210308032750 53 99 0.0 0.0 0.00 0.07 0.06 45 1027.7
20210308031238 54 99 0.0 0.0 0.00 0.07 0.06 43 1027.6
20210308030733 54 99 0.0 0.0 0.00 0.07 0.06 42 1027.6
20210308030240 54 99 0.0 0.0 0.00 0.07 0.06 42 1027.5
20210308025521 55 99 0.0 0.0 0.00 0.07 0.06 42 1027.4
20210308024221 55 99 0.0 0.0 0.00 0.07 0.06 42 1027.3
20210308023213 56 99 0.0 0.0 0.00 0.07 0.06 41 1027.1
20210308021729 57 99 0.0 0.0 0.00 0.07 0.06 39 1027.0
20210308021217 58 99 0.0 0.0 0.00 0.07 0.06 38 1027.0
20210308020729 58 99 0.0 0.0 0.00 0.07 0.06 38 1027.0
20210308020238 58 99 0.0 0.0 0.00 0.07 0.06 38 1027.0
20210308015845 59 99 0.0 0.0 0.00 0.07 0.06 37 1027.0
20210308015624 59 99 0.0 0.0 0.00 0.07 0.06 37 1027.0
20210308014741 59 99 0.0 0.0 0.00 0.07 0.06 37 1026.9
20210308014224 59 99 0.0 0.0 0.00 0.07 0.06 36 1026.9
20210308013727 60 99 0.0 0.0 0.00 0.07 0.06 36 1026.8
20210308013036 60 99 0.0 0.0 0.00 0.07 0.06 35 1026.6
20210308012634 60 99 0.0 0.0 0.00 0.07 0.06 35 1026.6
20210308011840 61 99 0.0 0.0 0.00 0.07 0.06 35 1026.5
20210308010733 61 99 0.0 0.0 0.00 0.07 0.06 34 1026.4
20210308010326 62 106 0.0 0.0 0.00 0.07 0.06 33 1026.3
20210308005210 62 107 0.0 0.0 0.00 0.07 0.06 32 1026.3
20210308003747 63 77 0.0 2.0 0.00 0.07 0.06 31 1026.3
20210308003406 63 77 0.0 3.0 0.00 0.07 0.06 31 1026.3
20210308001726 65 133 0.0 0.0 0.00 0.07 0.06 30 1026.3
20210308000851 65 152 0.0 6.0 0.00 0.07 0.06 29 1026.3
20210308000715 66 135 0.0 6.0 0.00 0.07 0.06 29 1026.3
20210308000452 66 205 1.0 6.0 0.00 0.07 0.06 29 1026.2
20210308000035 67 157 0.0 5.0 0.00 0.07 0.06 28 1026.2
20210307232908 69 114 0.0 4.0 0.00 0.07 0.06 28 1026.0
20210307231220 69 98 2.0 8.0 0.00 0.07 0.06 28 1026.0
20210307230258 70 129 0.0 6.0 0.00 0.07 0.06 28 1025.9
20210307230028 70 135 0.0 6.0 0.00 0.07 0.06 27 1025.9
20210307225056 70 103 1.0 5.0 0.01 0.07 0.06 26 1026.0
20210307223158 70 122 1.0 4.0 0.01 0.07 0.06 27 1026.1
20210307222955 70 131 0.0 7.0 0.01 0.07 0.06 27 1026.1
20210307221758 71 197 2.0 7.0 0.01 0.07 0.06 27 1026.0
20210307220704 71 233 1.0 7.0 0.01 0.08 0.06 28 1026.1
20210307215446 71 173 2.0 9.0 0.00 0.07 0.05 26 1026.1
20210307213813 70 122 1.0 7.0 0.00 0.07 0.05 27 1026.2
20210307213557 71 213 1.0 7.0 0.01 0.07 0.05 27 1026.2
20210307213000 70 150 1.0 9.0 0.01 0.07 0.05 28 1026.4
20210307211805 70 180 1.0 9.0 0.01 0.07 0.05 29 1026.3
20210307211223 70 211 3.0 9.0 0.01 0.07 0.05 27 1026.4
20210307210210 70 117 3.0 9.0 0.01 0.07 0.05 27 1026.4
20210307204702 71 121 2.0 8.0 0.01 0.07 0.05 27 1026.5
20210307204253 71 186 2.0 10.0 0.01 0.07 0.05 27 1026.6
20210307203703 71 136 0.0 10.0 0.01 0.07 0.05 28 1026.6
20210307203230 71 88 0.0 6.0 0.00 0.06 0.04 29 1026.7
20210307200730 70 148 0.0 7.0 0.01 0.06 0.04 29 1027.2
20210307200305 69 188 1.0 7.0 0.01 0.06 0.04 30 1027.3
20210307195909 69 164 2.0 12.0 0.01 0.06 0.04 30 1027.5
20210307193726 70 82 4.0 10.0 0.01 0.06 0.04 28 1027.6
20210307192833 70 142 1.0 9.0 0.01 0.06 0.04 33 1027.8
20210307191223 69 188 1.0 7.0 0.01 0.06 0.03 29 1028.0
20210307190742 69 163 0.0 5.0 0.01 0.06 0.03 31 1028.1
20210307190210 68 65 0.0 3.0 0.01 0.06 0.03 32 1028.2
20210307185833 68 142 0.0 5.0 0.01 0.06 0.03 32 1028.3
20210307185452 68 164 0.0 12.0 0.01 0.06 0.03 31 1028.4
20210307184227 68 141 1.0 7.0 0.01 0.07 0.03 34 1028.5
20210307183706 68 128 0.0 2.0 0.01 0.07 0.03 31 1028.6
20210307183207 68 120 0.0 7.0 0.01 0.07 0.03 32 1028.8
20210307180243 67 124 0.0 6.0 0.00 0.06 0.02 33 1029.3
20210307175815 66 199 1.0 7.0 0.00 0.06 0.02 34 1029.3
20210307174730 66 124 1.0 9.0 0.01 0.06 0.02 34 1029.5
20210307170259 63 126 2.0 7.0 0.01 0.07 0.02 36 1029.8
20210307165915 63 174 1.0 9.0 0.00 0.07 0.01 37 1029.9
20210307164752 62 121 2.0 8.0 0.00 0.07 0.01 38 1029.9
20210307164221 62 121 1.0 9.0 0.01 0.07 0.01 38 1029.9
20210307163737 62 154 1.0 9.0 0.01 0.07 0.01 39 1029.9
20210307163210 61 87 0.0 6.0 0.01 0.07 0.01 40 1029.8
20210307162908 61 207 1.0 6.0 0.01 0.07 0.01 41 1029.8
20210307161213 60 216 1.0 5.0 0.01 0.07 0.01 42 1029.9
20210307160712 59 140 1.0 7.0 0.01 0.07 0.01 42 1029.8
20210307160227 59 183 1.0 7.0 0.01 0.07 0.01 44 1030.0
20210307160026 58 118 1.0 6.0 0.01 0.07 0.01 45 1029.9
20210307154236 56 189 0.0 5.0 0.00 0.06 0.00 48 1029.8
20210307153709 55 195 0.0 7.0 0.00 0.06 0.00 50 1029.7
20210307151719 53 120 0.0 6.0 0.00 0.06 0.00 55 1029.6
20210307151239 52 140 1.0 6.0 0.00 0.06 0.00 55 1029.7
20210307145437 48 227 0.0 0.0 0.00 0.06 0.00 64 1029.2
20210307144747 47 104 0.0 0.0 0.00 0.06 0.00 69 1029.2
20210307144210 46 99 0.0 0.0 0.00 0.06 0.00 72 1029.1
20210307143718 44 99 0.0 0.0 0.00 0.06 0.00 75 1029.0
20210307143215 42 99 0.0 1.0 0.00 0.07 0.00 81 1029.0
20210307142931 41 77 0.0 1.0 0.00 0.07 0.00 83 1029.0
20210307141215 39 77 0.0 0.0 0.00 0.07 0.00 85 1028.6
20210307140721 38 77 0.0 0.0 0.00 0.07 0.00 85 1028.6
20210307140233 38 77 0.0 0.0 0.00 0.07 0.00 84 1028.5
20210307135936 38 77 0.0 0.0 0.00 0.07 0.00 84 1028.4
20210307135618 37 77 0.0 0.0 0.00 0.07 0.00 83 1028.4
20210307134808 37 77 0.0 0.0 0.00 0.07 0.00 82 1028.4
20210307134208 37 77 0.0 0.0 0.00 0.07 0.00 82 1028.3
20210307133742 37 77 0.0 0.0 0.00 0.07 0.00 81 1028.2
20210307133226 37 77 0.0 0.0 0.00 0.07 0.00 81 1028.3
20210307132714 37 77 0.0 0.0 0.00 0.07 0.00 78 1028.2
20210307131824 37 77 0.0 0.0 0.00 0.07 0.00 78 1028.2
20210307131205 37 77 0.0 0.0 0.00 0.07 0.00 78 1028.0
20210307130746 37 77 0.0 0.0 0.00 0.07 0.00 78 1028.0
20210307130130 38 77 0.0 0.0 0.00 0.07 0.00 78 1027.8
20210307125843 38 77 0.0 0.0 0.00 0.07 0.00 78 1027.9
20210307123727 38 77 0.0 0.0 0.00 0.07 0.00 78 1027.8
20210307123247 38 77 0.0 0.0 0.00 0.07 0.00 78 1027.6
20210307121812 38 77 0.0 0.0 0.00 0.07 0.00 76 1027.4
20210307121225 38 77 0.0 0.0 0.00 0.07 0.00 76 1027.3
20210307120741 39 77 0.0 0.0 0.00 0.07 0.00 76 1027.3
20210307120227 39 77 0.0 0.0 0.00 0.07 0.00 76 1027.2
20210307115932 39 77 0.0 0.0 0.00 0.07 0.00 76 1027.1
20210307114725 39 77 0.0 0.0 0.00 0.07 0.00 75 1027.0
20210307114229 39 77 0.0 0.0 0.00 0.07 0.00 74 1027.0
20210307113049 40 77 0.0 0.0 0.00 0.07 0.00 73 1026.7
20210307112834 40 77 0.0 0.0 0.00 0.07 0.00 73 1026.7
20210307111949 40 77 0.0 0.0 0.00 0.07 0.00 72 1026.5
20210307111228 40 77 0.0 0.0 0.00 0.07 0.00 72 1026.6
20210307110443 40 77 0.0 0.0 0.00 0.07 0.00 72 1026.4
20210307105941 41 77 0.0 0.0 0.00 0.07 0.00 71 1026.3
20210307104806 41 77 0.0 0.0 0.00 0.07 0.00 70 1026.2
20210307104226 41 77 0.0 0.0 0.00 0.07 0.00 69 1026.2
20210307103716 41 77 0.0 0.0 0.00 0.07 0.00 69 1026.1
20210307101235 42 77 0.0 0.0 0.00 0.07 0.00 68 1025.8
20210307100119 42 77 0.0 0.0 0.00 0.07 0.00 68 1025.7
20210307094217 42 77 0.0 0.0 0.00 0.07 0.00 68 1025.6
20210307093714 42 77 0.0 0.0 0.00 0.07 0.00 68 1025.6
20210307093232 42 77 0.0 0.0 0.00 0.07 0.00 68 1025.6
20210307092748 42 77 0.0 0.0 0.00 0.07 0.00 68 1025.9
20210307091736 42 77 0.0 0.0 0.00 0.07 0.00 67 1025.9
20210307090721 42 77 0.0 0.0 0.00 0.07 0.00 67 1026.0
20210307085707 42 77 0.0 0.0 0.00 0.07 0.00 67 1026.1
20210307084747 42 77 0.0 0.0 0.00 0.07 0.00 67 1026.2
20210307084313 42 77 0.0 0.0 0.00 0.07 0.00 67 1026.2